Flag for U.S.A. Weather past 2 weeks in Monterey, California, U.S.A.

Now
54 °F

Passing clouds.


Feels Like: 54 °F
Forecast: 51 / 64 °F
Wind: No wind

Location: Monterey Peninsula Airport


UV Index: 5 (Moderate)

Visibility: 10 mi


Pressure: 30.17 "Hg

Humidity: 86%

Dew point: 50 °F

Location of MontereyLocation

Historic Weather in Monterey

°F

Monterey temperature yesterday

Maximum temperature yesterday: 62 °F (at 3:54 PM)
Minimum temperature yesterday: 51 °F (at 2:54 AM)
Average temperature yesterday: 56 °F

Past Weeks' High & Low Weather Summary

 TemperatureHumidityPressure
High78 °F (Apr 8, 1:54 PM)96% (Apr 8, 6:54 AM)30.27 "Hg (Apr 8, 6:54 AM)
Low45 °F (Apr 10, 5:54 AM)30% (Apr 8, 1:54 PM)29.86 "Hg (Apr 17, 2:54 AM)
Average56 °F75%30.06 "Hg
* Reported Apr 5 12:54 AM — Apr 20 12:54 AM, Monterey, Weather by CustomWeather, © 2014

Note: Actual official high and low records may vary slightly from our data, if they occured in-between our weather recording intervals... More about our weather records

Advertising

Historic Weather Conditions — Data for Previous 24 hours

 ConditionsComfort  
Time TempWeatherWind HumidityBarometerVisibility
12:54 AM
Apr 20
54 °FPassing clouds.No wind90%30.18 "Hg10 mi
11:54 PM
Apr 19
56 °FLow clouds.No wind84%30.19 "Hg10 mi
10:54 PM56 °FLow clouds.5 mph84%30.20 "Hg10 mi
9:54 PM56 °FLow clouds.7 mph84%30.19 "Hg10 mi
9:02 PM57 °FLow clouds.8 mph82%30.14 "Hg10 mi
8:54 PM57 °FOvercast.8 mph81%30.18 "Hg10 mi
7:54 PM57 °FOvercast.8 mph81%30.16 "Hg10 mi
6:54 PM58 °FPartly sunny.10 mph75%30.16 "Hg10 mi
6:01 PM57 °FOvercast.8 mph77%30.13 "Hg10 mi
5:54 PM58 °FPartly sunny.8 mph75%30.17 "Hg10 mi
4:54 PM61 °FSunny.9 mph65%30.15 "Hg10 mi
3:54 PM62 °FSunny.5 mph60%30.16 "Hg10 mi
2:54 PM60 °FSunny.10 mph62%30.16 "Hg10 mi
1:54 PM60 °FSunny.12 mph58%30.15 "Hg10 mi
12:54 PM59 °FSunny.9 mph62%30.15 "Hg10 mi
11:54 AM58 °FSunny.10 mph65%30.15 "Hg10 mi
10:54 AM58 °FSunny.7 mph65%30.14 "Hg10 mi
9:54 AM57 °FSunny.No wind67%30.12 "Hg10 mi
8:54 AM55 °FScattered clouds.6 mph72%30.13 "Hg10 mi
7:54 AM53 °FScattered clouds.3 mph74%30.11 "Hg10 mi
6:54 AM52 °FPartly cloudy.3 mph77%30.09 "Hg10 mi
5:54 AM52 °FOvercast.5 mph77%30.07 "Hg10 mi
4:54 AM52 °FOvercast.3 mph80%30.06 "Hg10 mi
3:54 AM51 °FOvercast.5 mph80%30.05 "Hg10 mi
2:54 AM51 °FClear.5 mph80%30.03 "Hg10 mi
Weather by CustomWeather, © 2014

See weather overview